Temp
46 45 45 44 44 43 42 41 41 41 41 41 41 41 41 41 41 40 39 39 38 38 38 38 39 40 40 40 40 41 43 43 39 42 45 46 46 46 46 47 46 46 47
44 44 43 43 42 41 40 39 39 39 39 39 39 39 39 39 38 38 37 36 36 36 37 37 37 40 36 37 39 40 40 42 39 37 40 41 42 44 44 43 44 45 43
43 42 41 39 39 38 38 38 38 37 37 37 37 37 37 36 36 37 36 35 35 35 35 35 35 35 33 36 38 37 37 38 37 35 35 39 40 41 40 41 41 41 40
41 39 38 37 37 36 36 36 35 36 35 35 35 34 34 34 35 34 34 33 33 34 34 34 33 33 35 36 36 35 35 34 34 34 34 35 36 38 38 36 36 39 39
39 37 36 36 35 34 33 34 33 33 33 33 32 32 32 33 34 33 33 32 31 31 31 31 33 36 37 37 36 35 34 33 33 33 32 33 33 34 33 35 33 35 35
36 34 34 33 32 32 32 32 32 32 31 31 31 30 30 32 36 38 37 34 33 30 29 34 35 35 36 38 38 38 37 33 32 31 32 31 32 33 33 32 32 30 29
33 32 32 32 32 31 31 31 31 31 30 30 29 29 29 29 36 36 36 35 33 31 31 33 34 35 35 35 36 37 36 37 37 33 30 31 31 33 32 31 31 30 30
32 31 31 31 31 31 30 29 29 29 29 28 28 28 27 29 36 36 36 34 33 33 33 33 33 33 35 34 34 34 33 34 34 34 32 33 33 33 32 31 31 32 31
32 31 31 30 28 27 24 25 27 26 24 24 27 23 26 27 36 37 37 33 33 33 34 34 33 33 35 36 33 31 32 33 36 37 37 37 36 35 33 28 26 26 22
32 31 30 29 26 23 25 24 24 22 26 26 26 24 24 25 34 37 37 33 32 33 33 34 34 34 35 36 33 32 30 31 29 31 31 32 28 26 29 23 23 23 21
29 28 27 27 24 24 22 23 20 17 20 14 20 22 22 25 27 36 39 33 32 31 31 32 33 34 35 37 37 32 32 34 31 30 26 19 19 20 23 22 23 22 21
27 26 24 20 22 22 14 13 12 11 13 15 16 19 21 24 29 34 38 38 37 32 31 32 32 35 36 37 35 36 36 33 25 16 14 16 17 20 22 23 23 22 23
24 21 17 16 17 16 10 11 13 10 11 14 17 18 21 23 23 33 35 36 36 33 33 34 36 36 35 34 34 33 30 29 15 13 13 17 21 23 24 23 23 23 22
19 20 19 15 12 11 16 17 9 8 9 12 12 22 24 25 26 31 32 32 32 33 33 33 32 35 34 32 28 27 26 22 25 26 19 20 22 20 21 23 22 22 20
19 18 14 12 8 10 13 11 14 14 14 7 11 17 21 24 25 32 33 31 32 31 31 29 24 27 27 27 22 17 20 21 22 22 21 21 21 20 20 20 20 18 15
16 14 11 10 9 11 10 10 21 25 28 29 29 27 22 30 32 33 34 35 34 34 29 27 23 24 23 23 21 19 18 18 20 20 19 18 17 18 18 18 17 14 12
10 9 7 10 8 7 5 4 4 12 23 25 26 27 28 29 31 33 33 33 33 32 25 25 24 21 20 19 18 19 18 18 18 16 14 14 16 16 15 15 16 14 11
3 7 3 2 1 0 1 1 1 1 3 6 18 23 26 28 30 31 31 30 15 16 15 21 22 18 17 17 17 17 16 15 14 12 11 10 9 11 10 8 11 8 8
4 1 -0 -2 -1 1 0 1 1 2 3 6 7 15 16 24 27 26 25 12 15 15 13 15 17 17 17 16 16 15 13 12 8 6 6 6 6 6 5 5 7 8 7
-5 1 -1 -4 -3 -3 -1 0 2 1 1 2 4 9 12 10 3 0 -0 2 2 8 12 10 11 13 12 12 12 12 10 8 3 3 1 1 2 3 4 1 1 1 -2
-4 -5 -1 -5 -5 -5 -4 -2 -0 0 1 -0 4 11 22 16 2 -3 -3 -3 -1 1 5 7 7 9 9 9 9 9 8 6 1 0 -1 -2 -3 -1 -3 1 -5 -5 -6
-2 -2 -3 -2 -2 -2 -3 -1 -1 -1 1 3 5 4 17 0 -2 -3 -3 -4 -2 2 5 5 5 5 6 6 5 7 6 4 1 -0 -1 -1 -3 -3 -4 -3 -5 -9 -14
-1 -1 -3 -4 -5 -4 -5 -8 -7 -6 -6 -5 -4 -1 -4 -6 -5 -5 -4 -6 -1 1 3 5 7 6 6 5 5 4 4 3 1 -0 1 -3 -2 -4 -5 -7 -13 -14 -14
-3 -4 -5 -8 -8 -9 -9 -9 -9 -6 -7 -8 -10 -7 -5 -6 -8 -5 -3 -4 -1 1 3 4 5 4 4 3 3 2 1 1 -0 -1 -2 -1 -2 -5 -6 -12 -16 -17 -15
-9 -8 -8 -8 -10 -9 -10 -11 -10 -13 -12 -10 -8 -10 -9 -8 -7 -7 -4 -2 1 2 4 5 5 5 4 4 4 3 2 5 0 -2 -4 -3 -3 -5 -7 -13 -17 -16 -15
-8 -7 -7 -8 -10 -12 -13 -11 -12 -12 -12 -9 -9 -8 -7 -6 -6 -5 -2 3 4 4 4 6 5 5 5 4 4 5 4 5 2 0 -4 -4 -5 -6 -10 -16 -18 -16 -13
MSLP
1023.97 1024.36 1024.78 1025.34 1025.75 1026.16 1026.44 1026.84 1026.85 1027.09 1027.31 1027.32 1027.40 1027.28 1027.40 1027.43 1027.40 1027.47 1027.54 1027.34 1027.14 1026.96 1026.73 1026.44 1026.35 1026.16 1025.92 1025.52 1025.22 1024.81 1024.33 1023.98 1022.92 1018.68 1020.06 1019.34 1018.70 1018.28 1017.62 1017.03 1016.38 1015.88 1015.21
1024.38 1024.91 1025.45 1025.77 1026.27 1026.49 1026.87 1027.11 1027.33 1027.31 1027.48 1027.54 1027.66 1027.70 1027.87 1027.89 1027.75 1027.58 1027.50 1027.48 1027.47 1027.32 1026.96 1026.73 1026.36 1026.22 1025.93 1025.52 1025.16 1024.86 1024.51 1023.93 1023.29 1021.28 1019.79 1019.46 1019.00 1018.41 1017.63 1016.88 1016.07 1015.61 1014.88
1024.79 1025.29 1025.90 1026.21 1026.65 1026.97 1027.20 1027.53 1027.67 1027.77 1027.91 1027.92 1027.88 1027.97 1028.06 1028.06 1027.95 1027.82 1027.75 1027.61 1027.60 1027.48 1027.22 1026.78 1026.37 1026.09 1025.93 1025.57 1025.23 1024.85 1024.37 1023.95 1023.47 1022.30 1020.24 1019.83 1018.80 1018.25 1017.13 1016.48 1015.72 1015.04 1014.38
1025.04 1025.60 1026.02 1026.48 1026.92 1027.06 1027.35 1027.79 1027.99 1028.06 1028.08 1028.06 1028.06 1028.16 1028.17 1028.14 1028.04 1028.10 1027.93 1027.62 1027.44 1027.27 1027.08 1026.84 1026.50 1026.17 1025.70 1025.36 1024.97 1024.48 1023.96 1023.49 1022.89 1022.03 1020.68 1019.48 1018.83 1017.72 1017.28 1016.38 1014.96 1014.86 1013.99
1025.42 1025.90 1026.21 1026.80 1027.23 1027.42 1027.63 1028.07 1028.35 1028.30 1028.07 1028.06 1028.16 1028.22 1028.39 1028.20 1028.02 1027.97 1027.78 1027.61 1027.42 1027.07 1026.89 1026.71 1026.30 1025.83 1025.44 1025.16 1024.72 1024.02 1023.55 1023.02 1022.48 1021.60 1020.50 1019.48 1018.56 1017.63 1017.26 1016.62 1015.82 1014.77 1013.94
1025.43 1026.20 1026.65 1026.85 1027.20 1027.41 1027.63 1027.96 1028.30 1028.41 1028.37 1028.41 1028.38 1028.35 1028.27 1028.17 1027.91 1027.53 1027.33 1027.36 1026.96 1026.91 1026.75 1026.25 1025.82 1025.33 1024.96 1024.64 1024.20 1023.64 1023.31 1022.71 1022.09 1021.52 1020.39 1019.59 1018.48 1018.10 1017.23 1016.63 1015.95 1015.07 1013.56
1025.75 1026.45 1026.70 1026.75 1027.17 1027.32 1027.66 1028.11 1028.30 1028.51 1028.58 1028.68 1028.68 1028.57 1028.37 1028.30 1027.64 1027.46 1027.22 1026.97 1026.88 1026.81 1026.57 1025.92 1025.47 1025.14 1024.62 1024.08 1023.63 1023.15 1022.74 1022.44 1021.93 1021.25 1020.36 1019.76 1018.62 1018.04 1017.15 1016.40 1015.95 1015.25 1014.27
1025.85 1026.23 1026.36 1026.61 1027.20 1027.69 1028.15 1028.44 1028.46 1028.60 1028.59 1028.47 1028.38 1028.34 1028.20 1027.92 1027.28 1027.23 1026.99 1026.78 1026.68 1026.39 1026.00 1025.68 1025.22 1024.61 1024.09 1023.55 1023.03 1022.64 1022.27 1021.65 1021.04 1020.59 1019.96 1019.19 1018.64 1017.92 1017.56 1016.89 1015.91 1014.87 1014.26
1025.54 1025.83 1026.25 1026.56 1027.25 1027.86 1028.33 1028.58 1028.64 1028.54 1028.44 1028.41 1028.23 1027.98 1027.64 1027.27 1026.61 1026.56 1026.41 1026.39 1026.16 1025.89 1025.56 1025.22 1024.88 1024.37 1023.83 1023.26 1022.66 1022.06 1021.51 1020.91 1020.47 1020.07 1019.46 1019.01 1018.51 1018.23 1017.84 1017.32 1016.31 1015.51 1014.88
1025.21 1025.73 1026.05 1026.59 1027.23 1027.94 1028.50 1028.75 1028.60 1028.59 1028.49 1028.33 1028.01 1027.74 1027.47 1027.07 1026.51 1026.28 1025.97 1025.92 1025.76 1025.44 1025.20 1024.72 1024.40 1024.26 1023.50 1022.91 1022.33 1021.86 1021.36 1020.57 1020.28 1019.88 1019.49 1019.04 1019.12 1018.86 1018.29 1018.12 1017.39 1016.50 1015.83
1024.94 1025.56 1026.28 1026.83 1027.42 1028.19 1028.49 1028.49 1028.50 1028.43 1028.44 1028.12 1027.78 1027.46 1027.38 1027.20 1026.72 1026.07 1025.50 1025.40 1025.32 1025.00 1024.74 1024.25 1023.99 1023.71 1023.18 1022.43 1021.86 1021.64 1021.32 1020.65 1020.32 1020.17 1019.97 1019.74 1019.62 1019.24 1018.75 1018.35 1017.98 1017.52 1016.91
1025.18 1025.87 1026.53 1027.09 1027.89 1028.25 1028.31 1028.51 1028.55 1028.32 1028.30 1028.14 1027.88 1027.54 1027.25 1026.89 1026.32 1025.86 1025.37 1025.05 1024.89 1024.66 1024.33 1023.81 1023.35 1022.96 1022.47 1022.00 1021.75 1021.47 1021.08 1020.80 1020.61 1020.59 1020.73 1020.36 1019.91 1019.32 1019.01 1018.79 1018.53 1018.26 1017.98
1025.44 1026.20 1027.01 1027.70 1028.03 1028.12 1028.23 1028.49 1028.56 1028.25 1028.47 1028.23 1028.06 1027.57 1027.09 1026.69 1026.37 1025.68 1025.18 1024.96 1024.47 1024.16 1023.76 1023.19 1022.81 1022.55 1022.22 1022.06 1021.80 1021.67 1021.39 1021.12 1021.05 1021.07 1020.78 1020.50 1019.99 1019.59 1019.07 1018.86 1018.63 1018.47 1018.24
1025.29 1026.46 1027.31 1027.71 1028.08 1028.18 1028.12 1028.06 1028.29 1028.47 1028.18 1027.96 1027.51 1027.12 1026.76 1026.32 1025.93 1025.39 1024.89 1024.52 1024.14 1023.58 1023.33 1022.82 1022.47 1022.16 1022.21 1022.15 1022.02 1022.03 1021.84 1021.53 1021.17 1020.98 1020.82 1020.36 1020.07 1019.71 1019.36 1019.01 1018.76 1018.57 1018.61
1025.74 1026.56 1027.14 1027.77 1028.12 1028.05 1028.00 1027.95 1027.71 1027.62 1027.28 1027.30 1027.03 1026.62 1026.35 1025.79 1025.45 1024.78 1024.22 1023.73 1023.24 1022.91 1022.72 1022.55 1022.32 1022.05 1022.03 1022.05 1022.20 1022.30 1022.05 1021.66 1021.41 1021.15 1020.95 1020.77 1020.46 1020.09 1019.76 1019.39 1019.24 1019.22 1019.36
1026.06 1026.84 1027.57 1027.86 1027.82 1027.86 1028.23 1028.01 1027.34 1026.66 1026.43 1026.40 1026.16 1025.93 1025.80 1025.33 1024.71 1024.11 1023.68 1022.99 1022.53 1022.49 1022.22 1022.17 1022.10 1022.04 1022.04 1022.11 1022.28 1022.41 1022.26 1022.01 1021.71 1021.45 1021.26 1021.09 1020.89 1020.60 1020.31 1020.00 1019.91 1020.11 1020.23
1025.99 1027.16 1027.50 1027.48 1027.92 1028.14 1028.19 1028.05 1027.80 1027.25 1026.76 1026.80 1026.31 1025.87 1025.51 1024.93 1024.14 1023.43 1022.90 1022.50 1022.34 1022.66 1022.77 1022.34 1022.05 1021.91 1021.93 1022.06 1022.29 1022.44 1022.45 1022.31 1022.07 1021.89 1021.69 1021.56 1021.20 1021.11 1020.93 1020.76 1020.65 1020.72 1020.91
1026.63 1026.79 1027.03 1027.50 1027.86 1028.22 1028.45 1028.56 1028.19 1027.82 1027.66 1027.30 1026.79 1026.06 1025.27 1024.78 1024.07 1023.41 1023.02 1022.76 1022.92 1022.83 1023.16 1022.68 1022.21 1021.95 1021.99 1022.18 1022.41 1022.53 1022.61 1022.56 1022.40 1022.34 1022.16 1022.03 1021.77 1021.65 1021.55 1021.50 1021.38 1021.40 1021.50
1026.50 1026.81 1026.90 1027.26 1027.65 1027.99 1028.27 1028.44 1028.36 1027.90 1027.60 1027.29 1026.70 1026.13 1025.73 1024.82 1024.10 1024.00 1023.89 1023.97 1023.99 1023.71 1023.42 1022.81 1022.43 1022.38 1022.38 1022.51 1022.68 1022.74 1022.78 1022.85 1022.73 1022.74 1022.72 1022.56 1022.32 1022.13 1022.17 1022.10 1021.97 1021.95 1021.98
1026.19 1026.40 1026.79 1027.32 1027.83 1028.24 1028.36 1028.40 1028.08 1027.84 1027.70 1027.55 1027.15 1026.57 1025.79 1025.20 1025.12 1025.03 1024.70 1024.65 1024.67 1024.35 1023.76 1023.40 1023.10 1022.96 1022.94 1022.94 1023.03 1023.13 1023.22 1023.25 1023.16 1023.14 1023.11 1022.92 1022.68 1022.44 1022.54 1022.57 1022.58 1022.63 1022.71
1025.97 1026.35 1026.70 1027.36 1028.06 1028.19 1028.30 1028.12 1027.94 1027.88 1027.81 1027.57 1027.10 1026.40 1025.73 1025.32 1025.84 1025.77 1025.42 1025.04 1024.87 1024.56 1024.26 1023.87 1023.72 1023.58 1023.44 1023.38 1023.29 1023.39 1023.52 1023.59 1023.50 1023.41 1023.30 1023.20 1023.07 1023.14 1023.01 1023.01 1023.21 1023.29 1023.35
1025.86 1026.41 1026.88 1027.40 1027.39 1027.65 1027.68 1027.45 1027.82 1027.89 1027.81 1027.55 1027.10 1026.57 1026.21 1025.98 1025.89 1025.85 1025.63 1025.40 1025.17 1024.63 1024.32 1024.09 1023.89 1023.91 1023.82 1023.73 1023.67 1023.57 1023.58 1023.63 1023.58 1023.48 1023.46 1023.45 1023.34 1023.26 1023.31 1023.48 1023.67 1023.93 1024.03
1025.76 1026.22 1026.64 1026.85 1026.83 1026.92 1027.31 1027.35 1027.91 1027.84 1027.76 1027.72 1027.18 1026.85 1026.50 1026.30 1026.07 1025.78 1025.62 1025.50 1025.31 1024.81 1024.31 1024.03 1023.78 1023.72 1023.75 1023.80 1023.76 1023.69 1023.59 1023.55 1023.53 1023.51 1023.34 1023.30 1023.34 1023.41 1023.55 1023.86 1024.27 1024.47 1024.51
1025.46 1025.79 1026.31 1026.62 1026.73 1027.01 1027.28 1027.50 1027.69 1027.41 1027.57 1027.45 1027.10 1026.82 1026.59 1026.12 1025.84 1025.60 1025.56 1025.38 1025.06 1024.83 1024.44 1024.04 1023.76 1023.67 1023.57 1023.57 1023.52 1023.49 1023.50 1023.47 1023.47 1023.38 1023.31 1023.16 1023.23 1023.36 1023.59 1023.87 1024.13 1024.45 1024.70
1024.86 1025.41 1025.86 1026.16 1026.50 1026.80 1026.99 1027.19 1027.44 1027.52 1027.29 1027.07 1026.84 1026.60 1026.21 1025.83 1025.44 1025.29 1025.23 1024.82 1024.60 1024.59 1024.19 1023.83 1023.59 1023.39 1023.24 1023.10 1023.01 1022.94 1022.94 1022.86 1022.93 1022.96 1023.04 1022.97 1022.97 1023.08 1023.26 1023.54 1023.86 1024.22 1024.45
1024.30 1024.78 1025.16 1025.47 1026.11 1026.47 1026.63 1026.77 1026.98 1027.16 1027.19 1026.60 1026.33 1026.12 1025.97 1025.64 1025.09 1024.78 1024.69 1024.32 1024.00 1023.99 1023.82 1023.42 1023.19 1022.98 1022.73 1022.52 1022.35 1022.25 1022.20 1022.16 1022.31 1022.42 1022.54 1022.59 1022.64 1022.79 1022.99 1023.19 1023.55 1023.91 1024.14
Wind_Speed
9 9 10 9 8 7 8 6 6 6 6 6 6 6 6 6 6 5 5 5 6 6 5 5 6 5 5 6 5 5 7 7 12 20 12 13 17 16 14 11 10 11 10
9 9 9 8 7 8 7 7 6 6 5 6 6 6 5 5 5 5 5 5 5 7 7 6 7 6 6 5 6 8 8 10 10 20 18 14 15 15 16 17 12 11 11
9 9 8 7 7 7 7 6 6 6 6 5 5 5 5 5 5 5 5 5 5 6 6 6 8 6 6 7 9 9 7 7 9 11 17 12 14 11 14 13 13 13 9
9 8 9 7 6 6 6 6 5 4 4 5 5 5 5 5 5 6 5 5 5 6 6 6 7 7 9 11 10 8 8 8 8 10 12 13 12 13 11 11 13 10 14
9 8 8 7 6 6 6 5 4 5 5 5 5 5 5 5 4 6 5 5 5 7 7 6 7 11 14 12 9 9 9 9 9 11 12 13 14 13 14 10 12 13 12
8 8 6 7 6 6 6 6 5 5 5 5 6 6 6 4 11 11 11 9 8 6 7 10 10 10 12 19 18 17 15 10 11 10 12 14 16 12 10 10 12 12 13
8 7 6 6 6 6 6 5 4 3 3 4 4 5 5 5 10 12 14 8 10 8 9 10 10 7 10 10 12 17 13 15 17 13 14 12 15 14 12 12 12 12 12
8 7 6 6 6 5 5 2 1 1 2 3 4 4 4 4 10 12 14 8 8 10 10 10 11 11 10 11 10 12 11 10 11 8 10 12 10 10 8 9 12 11 4
8 7 6 6 6 4 2 1 3 2 1 2 3 4 3 4 9 12 12 6 6 10 9 10 9 10 13 20 12 12 10 9 8 16 17 17 14 15 13 7 7 7 3
8 7 6 6 5 4 2 3 2 1 3 3 4 4 5 7 11 10 11 5 7 7 7 8 10 12 19 20 11 8 11 9 7 9 8 5 7 7 12 6 6 5 3
7 7 6 5 4 2 3 1 1 2 2 3 4 4 6 6 8 11 13 5 6 6 6 7 5 15 19 19 16 6 9 11 9 6 3 3 3 4 5 6 7 5 4
7 6 5 4 2 2 2 1 2 2 4 5 4 4 3 5 9 10 14 13 13 6 8 7 6 15 18 18 9 15 14 9 3 2 2 3 3 3 2 4 5 6 5
7 6 4 3 2 2 2 2 2 3 2 3 3 4 5 3 4 14 15 16 15 9 7 12 16 16 15 9 9 12 8 4 2 2 2 2 2 3 4 2 2 3 4
8 6 5 4 2 1 1 0 0 2 2 2 2 5 6 6 4 6 8 7 10 7 10 10 8 9 10 5 4 6 4 3 3 2 2 2 3 3 2 2 2 2 2
6 5 4 3 3 2 0 2 2 4 4 2 4 3 6 9 7 16 15 10 9 6 10 5 2 2 2 3 2 3 3 3 3 3 3 3 2 2 3 3 3 3 3
6 4 3 3 2 2 1 2 6 6 6 10 12 10 4 15 20 21 22 21 16 15 7 7 4 3 3 2 1 2 2 3 3 2 2 2 2 2 2 2 3 3 2
7 6 4 3 2 2 1 2 2 4 7 8 11 14 16 18 21 20 19 19 17 13 6 6 6 3 2 1 1 1 1 2 2 2 2 2 2 2 2 2 1 2 2
5 6 4 3 3 2 1 2 1 1 2 3 8 13 16 18 19 18 19 19 5 4 2 8 7 2 1 1 1 1 0 1 1 2 2 2 3 1 2 2 2 1 1
5 3 3 3 2 2 1 2 2 2 2 3 3 6 9 17 15 14 16 3 5 6 4 4 1 1 1 1 0 0 1 0 1 1 2 2 2 1 1 1 1 2 2
4 5 4 3 2 1 2 2 2 2 2 3 3 5 5 1 3 3 2 2 3 4 4 3 2 2 2 2 1 1 1 1 1 1 1 1 2 1 1 0 1 1 1
4 3 5 3 3 3 3 2 2 1 2 3 4 4 18 7 3 2 3 2 2 2 3 2 2 1 1 1 1 1 0 0 0 0 1 1 1 0 1 1 1 2 2
4 4 3 4 3 3 2 2 1 2 3 3 3 4 14 2 3 3 3 3 3 2 1 2 0 0 0 0 1 1 1 1 1 1 1 1 1 1 0 1 1 1 1
4 4 4 3 3 2 1 1 1 1 2 3 3 3 3 3 3 3 3 3 3 3 2 2 1 1 1 1 1 1 2 2 2 2 2 2 1 1 1 1 2 1 1
5 5 4 3 3 3 2 2 2 2 3 3 3 3 3 3 3 4 4 3 3 3 3 2 2 3 2 2 2 2 2 2 2 3 3 3 2 2 2 1 2 2 2
4 4 3 4 3 3 2 2 2 2 3 2 3 3 3 4 3 3 4 3 3 4 5 4 3 4 5 5 5 5 5 7 5 5 3 3 4 4 3 2 2 2 2
4 4 3 3 3 3 3 3 3 2 3 3 3 3 4 5 4 3 4 5 5 5 6 5 5 8 7 6 7 7 8 9 8 9 4 3 4 3 3 3 4 3 3
Wind_Direction
95 96 97 96 93 88 86 76 78 72 55 52 43 43 36 26 17 23 13 5 355 337 337 342 325 325 328 324 318 309 302 302 291 298 306 311 312 311 307 297 285 280 277
110 103 101 96 91 88 80 73 61 68 56 54 40 40 30 19 8 18 7 351 342 332 327 325 322 324 316 313 317 317 304 300 292 295 305 309 308 310 305 303 303 300 286
111 110 101 95 92 84 76 66 57 54 50 46 46 37 19 5 358 8 359 337 329 322 317 315 309 310 308 318 322 310 302 294 290 290 297 301 300 302 300 293 298 297 279
114 112 106 99 98 91 85 71 66 61 64 40 32 19 11 355 351 348 338 331 321 320 311 308 308 309 315 323 314 300 294 292 288 281 286 296 299 308 297 306 304 308 306
120 112 109 107 99 95 88 81 63 48 45 34 16 4 355 349 345 339 332 316 313 314 311 308 315 328 322 318 315 309 308 305 300 301 295 301 303 310 312 316 304 309 307
122 118 123 121 116 102 85 68 54 36 29 21 4 345 343 340 336 342 342 330 324 305 305 324 323 324 326 321 312 306 304 303 303 301 301 302 304 311 306 307 302 308 310
126 134 134 121 106 86 77 70 56 27 9 343 325 319 318 310 334 345 345 336 330 326 325 330 329 322 315 311 304 302 296 305 293 289 292 297 301 308 305 313 307 296 293
141 139 130 112 101 94 86 83 36 232 319 317 306 306 307 300 339 345 344 339 331 328 330 327 319 306 315 316 317 318 304 291 283 281 274 284 295 319 319 317 309 297 291
150 138 135 126 120 114 94 257 251 223 257 251 246 258 276 268 321 325 339 327 323 327 322 315 304 311 316 325 316 304 300 297 301 318 318 319 339 347 346 333 328 322 315
153 148 134 130 125 124 202 244 226 247 259 277 293 266 281 293 300 318 334 320 316 317 313 304 315 318 316 318 310 311 315 317 331 328 316 354 357 345 4 5 335 333 311
134 125 118 113 120 181 211 238 283 301 299 307 311 312 298 284 301 297 321 319 306 304 309 310 311 310 310 314 321 313 303 327 325 311 339 330 332 345 1 1 3 1 343
125 119 117 108 167 163 126 308 309 352 0 340 333 311 272 284 298 292 308 312 311 305 299 293 294 316 318 316 332 326 336 338 326 354 357 327 326 334 330 2 7 20 18
130 116 117 155 195 171 125 329 351 20 13 317 313 310 312 296 294 305 308 308 306 301 288 286 298 319 317 325 353 353 349 335 339 22 321 310 314 319 322 339 327 341 24
120 138 155 145 142 120 113 156 58 304 298 256 294 316 314 311 293 308 310 293 278 283 297 294 271 305 307 321 351 0 337 320 334 329 287 283 311 337 336 319 338 326 37
134 149 139 141 150 114 66 218 223 247 202 216 238 266 300 308 301 303 310 301 295 281 300 300 265 255 251 290 338 320 321 340 355 340 346 339 334 333 336 337 9 15 56
138 135 160 158 122 108 99 309 324 310 325 317 311 306 285 299 312 313 310 307 322 318 297 281 254 234 231 235 266 284 316 334 337 334 347 335 335 342 346 360 32 40 43
135 163 164 133 129 106 39 27 355 332 323 324 327 322 318 313 314 315 320 318 315 320 295 291 270 233 218 205 231 276 303 338 349 352 1 329 331 348 13 359 23 52 33
152 151 146 152 138 107 115 262 236 255 291 284 318 324 326 327 319 326 329 325 329 321 266 290 275 225 195 186 204 236 8 349 10 359 6 348 353 17 24 11 9 116 106
155 158 145 132 136 167 215 266 254 271 274 294 306 315 306 318 321 339 341 328 317 315 302 284 300 331 56 80 71 164 98 14 51 36 356 0 339 72 21 357 25 36 123
148 148 144 145 148 187 231 240 290 306 306 283 290 299 302 347 359 317 311 318 335 314 326 336 4 34 43 49 42 9 50 33 27 53 4 351 356 28 111 271 21 99 14
145 147 151 129 174 197 197 221 249 243 245 258 265 285 316 330 316 296 287 304 278 296 315 330 351 25 42 33 48 34 309 330 356 324 327 334 355 37 348 52 90 88 123
147 155 158 178 184 187 214 216 237 253 253 266 303 295 326 335 309 295 291 286 277 261 277 295 277 316 355 11 325 286 259 241 251 292 295 297 313 5 28 80 49 66 99
160 167 172 176 174 167 136 163 256 269 274 269 273 295 304 291 286 282 280 280 291 292 280 283 286 240 201 248 255 273 271 253 242 234 236 229 229 223 206 195 171 151 169
165 169 169 171 146 141 165 209 247 271 274 276 295 291 277 273 278 287 277 276 283 278 268 260 249 248 249 236 228 223 234 240 230 231 225 222 212 202 201 187 192 196 181
155 158 158 164 162 181 190 220 244 263 279 271 281 273 282 286 288 288 282 269 264 269 266 257 247 250 253 251 245 233 235 257 214 211 209 214 219 198 202 189 175 194 187
157 162 165 156 168 181 190 213 242 248 254 260 262 275 275 277 266 271 276 276 272 270 266 258 249 248 249 248 244 246 241 242 231 227 209 206 207 206 192 200 190 191 199